Year,Month,Day,Hour,Minute,Value (Times are PST for temperature in C)
2021,04,19,00,00,11.10
2021,04,19,00,01,11.10
2021,04,19,00,02,11.10
2021,04,19,00,03,11.10
2021,04,19,00,04,11.10
2021,04,19,00,05,11.10
2021,04,19,00,06,11.10
2021,04,19,00,07,11.00
2021,04,19,00,08,11.00
2021,04,19,00,09,11.00
2021,04,19,00,10,11.00
2021,04,19,00,11,11.00
2021,04,19,00,12,11.00
2021,04,19,00,13,10.90
2021,04,19,00,14,10.90
2021,04,19,00,15,10.90
2021,04,19,00,16,10.90
2021,04,19,00,17,10.90
2021,04,19,00,18,10.90
2021,04,19,00,19,10.90
2021,04,19,00,20,10.90
2021,04,19,00,21,10.90
2021,04,19,00,22,10.90
2021,04,19,00,23,10.80
2021,04,19,00,24,10.80
2021,04,19,00,25,10.80
2021,04,19,00,26,10.80
2021,04,19,00,27,10.80
2021,04,19,00,28,10.80
2021,04,19,00,29,10.80
2021,04,19,00,30,10.80
2021,04,19,00,31,10.80
2021,04,19,00,32,10.80
2021,04,19,00,33,10.80
2021,04,19,00,34,10.80
2021,04,19,00,35,10.80
2021,04,19,00,36,10.90
2021,04,19,00,37,10.90
2021,04,19,00,38,10.90
2021,04,19,00,39,10.90
2021,04,19,00,40,11.00
2021,04,19,00,41,11.00
2021,04,19,00,42,11.00
2021,04,19,00,43,11.10
2021,04,19,00,44,11.10
2021,04,19,00,45,11.10
2021,04,19,00,46,11.10
2021,04,19,00,47,11.10
2021,04,19,00,48,11.20
2021,04,19,00,49,11.20
2021,04,19,00,50,11.20
2021,04,19,00,51,11.30
2021,04,19,00,52,11.30
2021,04,19,00,53,11.30
2021,04,19,00,54,11.30
2021,04,19,00,55,11.40
2021,04,19,00,56,11.40
2021,04,19,00,57,11.40
2021,04,19,00,58,11.40
2021,04,19,00,59,11.40
2021,04,19,01,00,11.40
2021,04,19,01,01,11.40
2021,04,19,01,02,11.40
2021,04,19,01,03,11.40
2021,04,19,01,04,11.40
2021,04,19,01,05,11.40
2021,04,19,01,06,11.40
2021,04,19,01,07,11.40
2021,04,19,01,08,11.40
2021,04,19,01,09,11.40
2021,04,19,01,10,11.40
2021,04,19,01,11,11.50
2021,04,19,01,12,11.50
2021,04,19,01,13,11.60
2021,04,19,01,14,11.60
2021,04,19,01,15,11.70
2021,04,19,01,16,11.70
2021,04,19,01,17,11.70
2021,04,19,01,18,11.80
2021,04,19,01,19,11.90
2021,04,19,01,20,11.90
2021,04,19,01,21,11.90
2021,04,19,01,22,12.00
2021,04,19,01,23,12.00
2021,04,19,01,24,12.10
2021,04,19,01,25,12.10
2021,04,19,01,26,12.20
2021,04,19,01,27,12.20
2021,04,19,01,28,12.20
2021,04,19,01,29,12.20
2021,04,19,01,30,12.20
2021,04,19,01,31,12.20
2021,04,19,01,32,12.30
2021,04,19,01,33,12.30
2021,04,19,01,34,12.30
2021,04,19,01,35,12.30
2021,04,19,01,36,12.30
2021,04,19,01,37,12.30
2021,04,19,01,38,12.30
2021,04,19,01,39,12.30
2021,04,19,01,40,12.30
2021,04,19,01,41,12.30
2021,04,19,01,42,12.30
2021,04,19,01,43,12.30
2021,04,19,01,44,12.30
2021,04,19,01,45,12.30
2021,04,19,01,46,12.30
2021,04,19,01,47,12.30
2021,04,19,01,48,12.30
2021,04,19,01,49,12.30
2021,04,19,01,50,12.30
2021,04,19,01,51,12.30
2021,04,19,01,52,12.40
2021,04,19,01,53,12.40
2021,04,19,01,54,12.40
2021,04,19,01,55,12.40
2021,04,19,01,56,12.50
2021,04,19,01,57,12.50
2021,04,19,01,58,12.60
2021,04,19,01,59,12.70
2021,04,19,02,00,12.80
2021,04,19,02,01,12.90
2021,04,19,02,02,13.00
2021,04,19,02,03,13.20
2021,04,19,02,04,13.40
2021,04,19,02,05,13.50
2021,04,19,02,06,13.60
2021,04,19,02,07,13.60
2021,04,19,02,08,13.80
2021,04,19,02,09,13.80
2021,04,19,02,10,13.90
2021,04,19,02,11,13.90
2021,04,19,02,12,13.90
2021,04,19,02,13,13.90
2021,04,19,02,14,14.00
2021,04,19,02,15,14.00
2021,04,19,02,16,14.10
2021,04,19,02,17,14.10
2021,04,19,02,18,14.10
2021,04,19,02,19,14.20
2021,04,19,02,20,14.20
2021,04,19,02,21,14.30
2021,04,19,02,22,14.30
2021,04,19,02,23,14.30
2021,04,19,02,24,14.40
2021,04,19,02,25,14.40
2021,04,19,02,26,14.40
2021,04,19,02,27,14.40
2021,04,19,02,28,14.50
2021,04,19,02,29,14.50
2021,04,19,02,30,14.60
2021,04,19,02,31,14.60
2021,04,19,02,32,14.60
2021,04,19,02,33,14.60
2021,04,19,02,34,14.70
2021,04,19,02,35,14.80
2021,04,19,02,36,14.80
2021,04,19,02,37,14.90
2021,04,19,02,38,14.90
2021,04,19,02,39,14.90
2021,04,19,02,40,14.90
2021,04,19,02,41,14.90
2021,04,19,02,42,14.90
2021,04,19,02,43,14.90
2021,04,19,02,44,14.90
2021,04,19,02,45,14.90
2021,04,19,02,46,14.90
2021,04,19,02,47,14.90
2021,04,19,02,48,14.90
2021,04,19,02,49,14.90
2021,04,19,02,50,14.80
2021,04,19,02,51,14.80
2021,04,19,02,52,14.80
2021,04,19,02,53,14.70
2021,04,19,02,54,14.70
2021,04,19,02,55,14.70
2021,04,19,02,56,14.70
2021,04,19,02,57,14.70
2021,04,19,02,58,14.80
2021,04,19,02,59,14.80
2021,04,19,03,00,14.80
2021,04,19,03,01,14.80
2021,04,19,03,02,14.90
2021,04,19,03,03,15.00
2021,04,19,03,04,15.00
2021,04,19,03,05,15.10
2021,04,19,03,06,15.10
2021,04,19,03,07,15.10
2021,04,19,03,08,15.10
2021,04,19,03,09,15.10
2021,04,19,03,10,15.10
2021,04,19,03,11,15.10
2021,04,19,03,12,15.20
2021,04,19,03,13,15.10
2021,04,19,03,14,15.10
2021,04,19,03,15,15.10
2021,04,19,03,16,15.00
2021,04,19,03,17,15.00
2021,04,19,03,18,14.90
2021,04,19,03,19,14.90
2021,04,19,03,20,15.00
2021,04,19,03,21,15.00
2021,04,19,03,22,15.10
2021,04,19,03,23,15.20
2021,04,19,03,24,15.20
2021,04,19,03,25,15.30
2021,04,19,03,26,15.40
2021,04,19,03,27,15.40
2021,04,19,03,28,15.40
2021,04,19,03,29,15.40
2021,04,19,03,30,15.40
2021,04,19,03,31,15.40
2021,04,19,03,32,15.40
2021,04,19,03,33,15.40
2021,04,19,03,34,15.40
2021,04,19,03,35,15.30
2021,04,19,03,36,15.30
2021,04,19,03,37,15.20
2021,04,19,03,38,15.20
2021,04,19,03,39,15.20
2021,04,19,03,40,15.30
2021,04,19,03,41,15.20
2021,04,19,03,42,15.20
2021,04,19,03,43,15.20
2021,04,19,03,44,15.20
2021,04,19,03,45,15.20
2021,04,19,03,46,15.10
2021,04,19,03,47,15.10
2021,04,19,03,48,15.00
2021,04,19,03,49,15.00
2021,04,19,03,50,15.00
2021,04,19,03,51,15.00
2021,04,19,03,52,15.00
2021,04,19,03,53,14.90
2021,04,19,03,54,14.90
2021,04,19,03,55,14.90
2021,04,19,03,56,14.80
2021,04,19,03,57,14.80
2021,04,19,03,58,14.80
2021,04,19,03,59,14.80
2021,04,19,04,00,14.70
2021,04,19,04,01,14.70
2021,04,19,04,02,14.70
2021,04,19,04,03,14.70
2021,04,19,04,04,14.70
2021,04,19,04,05,14.60
2021,04,19,04,06,14.60
2021,04,19,04,07,14.60
2021,04,19,04,08,14.60
2021,04,19,04,09,14.60
2021,04,19,04,10,14.50
2021,04,19,04,11,14.50
2021,04,19,04,12,14.40
2021,04,19,04,13,14.30
2021,04,19,04,14,14.30
2021,04,19,04,15,14.20
2021,04,19,04,16,14.20
2021,04,19,04,17,14.10
2021,04,19,04,18,14.10
2021,04,19,04,19,14.10
2021,04,19,04,20,14.00
2021,04,19,04,21,14.00
2021,04,19,04,22,14.00
2021,04,19,04,23,14.00
2021,04,19,04,24,14.10
2021,04,19,04,25,14.10
2021,04,19,04,26,14.00
2021,04,19,04,27,14.00
2021,04,19,04,28,14.00
2021,04,19,04,29,14.00
2021,04,19,04,30,13.90
2021,04,19,04,31,13.90
2021,04,19,04,32,13.90
2021,04,19,04,33,13.90
2021,04,19,04,34,13.80
2021,04,19,04,35,13.80
2021,04,19,04,36,13.80
2021,04,19,04,37,13.80
2021,04,19,04,38,13.80
2021,04,19,04,39,13.80
2021,04,19,04,40,13.90
2021,04,19,04,41,13.90
2021,04,19,04,42,13.90
2021,04,19,04,43,13.90
2021,04,19,04,44,13.90
2021,04,19,04,45,13.90
2021,04,19,04,46,13.90
2021,04,19,04,47,13.90
2021,04,19,04,48,13.90
2021,04,19,04,49,13.90
2021,04,19,04,50,13.90
2021,04,19,04,51,13.90
2021,04,19,04,52,13.90
2021,04,19,04,53,13.90
2021,04,19,04,54,13.90
2021,04,19,04,55,14.00
2021,04,19,04,56,14.10
2021,04,19,04,57,14.10
2021,04,19,04,58,14.20
2021,04,19,04,59,14.20
2021,04,19,05,00,14.10
2021,04,19,05,01,14.10
2021,04,19,05,02,14.00
2021,04,19,05,03,14.00
2021,04,19,05,04,13.90
2021,04,19,05,05,13.90
2021,04,19,05,06,13.90
2021,04,19,05,07,14.00
2021,04,19,05,08,14.00
2021,04,19,05,09,14.00
2021,04,19,05,10,14.00
2021,04,19,05,11,14.00
2021,04,19,05,12,14.00
2021,04,19,05,13,13.90
2021,04,19,05,14,13.90
2021,04,19,05,15,13.90
2021,04,19,05,16,13.90
2021,04,19,05,17,13.90
2021,04,19,05,18,13.90
2021,04,19,05,19,13.90
2021,04,19,05,20,13.90
2021,04,19,05,21,13.90
2021,04,19,05,22,14.00
2021,04,19,05,23,14.10
2021,04,19,05,24,14.10
2021,04,19,05,25,14.10
2021,04,19,05,26,14.20
2021,04,19,05,27,14.20
2021,04,19,05,28,14.20
2021,04,19,05,29,14.20
2021,04,19,05,30,14.20
2021,04,19,05,31,14.10
2021,04,19,05,32,14.10
2021,04,19,05,33,14.10
2021,04,19,05,34,14.10
2021,04,19,05,35,14.10
2021,04,19,05,36,14.00
2021,04,19,05,37,14.00
2021,04,19,05,38,14.00
2021,04,19,05,39,14.00
2021,04,19,05,40,14.00
2021,04,19,05,41,14.00
2021,04,19,05,42,14.00
2021,04,19,05,43,14.10
2021,04,19,05,44,14.00
2021,04,19,05,45,14.00
2021,04,19,05,46,14.00
2021,04,19,05,47,14.00
2021,04,19,05,48,14.00
2021,04,19,05,49,13.90
2021,04,19,05,50,13.90
2021,04,19,05,51,13.90
2021,04,19,05,52,13.90
2021,04,19,05,53,13.90
2021,04,19,05,54,13.90
2021,04,19,05,55,13.90
2021,04,19,05,56,14.00
2021,04,19,05,57,14.10
2021,04,19,05,58,14.10
2021,04,19,05,59,14.10
2021,04,19,06,00,14.10
2021,04,19,06,01,14.10
2021,04,19,06,02,14.10
2021,04,19,06,03,14.10
2021,04,19,06,04,14.10
2021,04,19,06,05,14.10
2021,04,19,06,06,14.10
2021,04,19,06,07,14.10
2021,04,19,06,08,14.00
2021,04,19,06,09,14.00
2021,04,19,06,10,14.00
2021,04,19,06,11,14.00
2021,04,19,06,12,14.10
2021,04,19,06,13,14.10
2021,04,19,06,14,14.20
2021,04,19,06,15,14.20
2021,04,19,06,16,14.20
2021,04,19,06,17,14.20
2021,04,19,06,18,14.30
2021,04,19,06,19,14.30
2021,04,19,06,20,14.30
2021,04,19,06,21,14.30
2021,04,19,06,22,14.30
2021,04,19,06,23,14.30
2021,04,19,06,24,14.30
2021,04,19,06,25,14.20
2021,04,19,06,26,14.20
2021,04,19,06,27,14.10
2021,04,19,06,28,14.00
2021,04,19,06,29,14.00
2021,04,19,06,30,13.90
2021,04,19,06,31,13.80
2021,04,19,06,32,13.80
2021,04,19,06,33,13.80
2021,04,19,06,34,13.80
2021,04,19,06,35,13.70
2021,04,19,06,36,13.70
2021,04,19,06,37,13.70
2021,04,19,06,38,13.70
2021,04,19,06,39,13.70
2021,04,19,06,40,13.70
2021,04,19,06,41,13.70
2021,04,19,06,42,13.70
2021,04,19,06,43,13.70
2021,04,19,06,44,13.60
2021,04,19,06,45,13.60
2021,04,19,06,46,13.60
2021,04,19,06,47,13.50
2021,04,19,06,48,13.50
2021,04,19,06,49,13.40
2021,04,19,06,50,13.40
2021,04,19,06,51,13.40
2021,04,19,06,52,13.40
2021,04,19,06,53,13.30
2021,04,19,06,54,13.30
2021,04,19,06,55,13.40
2021,04,19,06,56,13.40
2021,04,19,06,57,13.40
2021,04,19,06,58,13.50
2021,04,19,06,59,13.60
2021,04,19,07,00,13.60
2021,04,19,07,01,13.60
2021,04,19,07,02,13.60
2021,04,19,07,03,13.60
2021,04,19,07,04,13.70
2021,04,19,07,05,13.70
2021,04,19,07,06,13.70
2021,04,19,07,07,13.70
2021,04,19,07,08,13.70
2021,04,19,07,09,13.70
2021,04,19,07,10,13.70
2021,04,19,07,11,13.70
2021,04,19,07,12,13.70
2021,04,19,07,13,13.70
2021,04,19,07,14,13.70
2021,04,19,07,15,13.70
2021,04,19,07,16,13.70
2021,04,19,07,17,13.70
2021,04,19,07,18,13.70
2021,04,19,07,19,13.70
2021,04,19,07,20,13.80
2021,04,19,07,21,13.80
2021,04,19,07,22,13.80
2021,04,19,07,23,13.90
2021,04,19,07,24,13.90
2021,04,19,07,25,13.90
2021,04,19,07,26,13.90
2021,04,19,07,27,13.90
2021,04,19,07,28,14.00
2021,04,19,07,29,13.90
2021,04,19,07,30,13.90
2021,04,19,07,31,13.90
2021,04,19,07,32,13.90
2021,04,19,07,33,13.90
2021,04,19,07,34,13.90
2021,04,19,07,35,13.90
2021,04,19,07,36,14.00
2021,04,19,07,37,14.00
2021,04,19,07,38,14.10
2021,04,19,07,39,14.10
2021,04,19,07,40,14.10
2021,04,19,07,41,14.10
2021,04,19,07,42,14.00
2021,04,19,07,43,14.00
2021,04,19,07,44,14.00
2021,04,19,07,45,14.00
2021,04,19,07,46,13.90
2021,04,19,07,47,14.00
2021,04,19,07,48,14.00
2021,04,19,07,49,14.00
2021,04,19,07,50,14.00
2021,04,19,07,51,14.00
2021,04,19,07,52,14.10
2021,04,19,07,53,14.10
2021,04,19,07,54,14.10
2021,04,19,07,55,14.10
2021,04,19,07,56,14.10
2021,04,19,07,57,14.20
2021,04,19,07,58,14.20
2021,04,19,07,59,14.20
2021,04,19,08,00,14.20
2021,04,19,08,01,14.20
2021,04,19,08,02,14.20
2021,04,19,08,03,14.20
2021,04,19,08,04,14.20
2021,04,19,08,05,14.30
2021,04,19,08,06,14.30
2021,04,19,08,07,14.30
2021,04,19,08,08,14.30
2021,04,19,08,09,14.40
2021,04,19,08,10,14.40
2021,04,19,08,11,14.40
2021,04,19,08,12,14.40
2021,04,19,08,13,14.50
2021,04,19,08,14,14.50
2021,04,19,08,15,14.50
2021,04,19,08,16,14.60
2021,04,19,08,17,14.60
2021,04,19,08,18,14.60
2021,04,19,08,19,14.70
2021,04,19,08,20,14.70
2021,04,19,08,21,14.70
2021,04,19,08,22,14.80
2021,04,19,08,23,14.80
2021,04,19,08,24,14.90
2021,04,19,08,25,15.00
2021,04,19,08,26,15.00
2021,04,19,08,27,15.10
2021,04,19,08,28,15.10
2021,04,19,08,29,15.20
2021,04,19,08,30,15.30
2021,04,19,08,31,15.30
2021,04,19,08,32,15.40
2021,04,19,08,33,15.40
2021,04,19,08,34,15.40
2021,04,19,08,35,15.50
2021,04,19,08,36,15.50
2021,04,19,08,37,15.60
2021,04,19,08,38,15.60
2021,04,19,08,39,15.60
2021,04,19,08,40,15.70
2021,04,19,08,41,15.70
2021,04,19,08,42,15.70
2021,04,19,08,43,15.70
2021,04,19,08,44,15.80
2021,04,19,08,45,15.80
2021,04,19,08,46,15.80
2021,04,19,08,47,15.80
2021,04,19,08,48,15.80
2021,04,19,08,49,15.90
2021,04,19,08,50,15.90
2021,04,19,08,51,16.00
2021,04,19,08,52,16.00
2021,04,19,08,53,16.10
2021,04,19,08,54,16.10
2021,04,19,08,55,16.10
2021,04,19,08,56,16.20
2021,04,19,08,57,16.20
2021,04,19,08,58,16.20
2021,04,19,08,59,16.30
2021,04,19,09,00,16.30
2021,04,19,09,01,16.40
2021,04,19,09,02,16.40
2021,04,19,09,03,16.30
2021,04,19,09,04,16.30
2021,04,19,09,05,16.30
2021,04,19,09,06,16.40
2021,04,19,09,07,16.40
2021,04,19,09,08,16.40
2021,04,19,09,09,16.50
2021,04,19,09,10,16.50
2021,04,19,09,11,16.60
2021,04,19,09,12,16.60
2021,04,19,09,13,16.70
2021,04,19,09,14,16.70
2021,04,19,09,15,16.70
2021,04,19,09,16,16.70
2021,04,19,09,17,16.70
2021,04,19,09,18,16.70
2021,04,19,09,19,16.70
2021,04,19,09,20,16.80
2021,04,19,09,21,16.80
2021,04,19,09,22,16.80
2021,04,19,09,23,16.80
2021,04,19,09,24,16.80
2021,04,19,09,25,16.80
2021,04,19,09,26,16.80
2021,04,19,09,27,16.70
2021,04,19,09,28,16.70
2021,04,19,09,29,16.80
2021,04,19,09,30,16.80
2021,04,19,09,31,16.80
2021,04,19,09,32,16.90
2021,04,19,09,33,16.90
2021,04,19,09,34,16.90
2021,04,19,09,35,16.80
2021,04,19,09,36,16.80
2021,04,19,09,37,16.70
2021,04,19,09,38,16.70
2021,04,19,09,39,16.70
2021,04,19,09,40,16.70
2021,04,19,09,41,16.70
2021,04,19,09,42,16.70
2021,04,19,09,43,16.70
2021,04,19,09,44,16.70
2021,04,19,09,45,16.70
2021,04,19,09,46,16.70
2021,04,19,09,47,16.80
2021,04,19,09,48,16.80
2021,04,19,09,49,16.80
2021,04,19,09,50,16.90
2021,04,19,09,51,17.00
2021,04,19,09,52,17.00
2021,04,19,09,53,17.10
2021,04,19,09,54,17.20
2021,04,19,09,55,17.30
2021,04,19,09,56,17.40
2021,04,19,09,57,17.40
2021,04,19,09,58,17.60
2021,04,19,09,59,17.70
2021,04,19,10,00,17.80
2021,04,19,10,01,17.80
2021,04,19,10,02,17.80
2021,04,19,10,03,17.80
2021,04,19,10,04,17.70
2021,04,19,10,05,17.60
2021,04,19,10,06,17.60
2021,04,19,10,07,17.50
2021,04,19,10,08,17.40
2021,04,19,10,09,17.40
2021,04,19,10,10,17.40
2021,04,19,10,11,17.40
2021,04,19,10,12,17.40
2021,04,19,10,13,17.40
2021,04,19,10,14,17.40
2021,04,19,10,15,17.40
2021,04,19,10,16,17.40
2021,04,19,10,17,17.40
2021,04,19,10,18,17.40
2021,04,19,10,19,17.50
2021,04,19,10,20,17.60
2021,04,19,10,21,17.60
2021,04,19,10,22,17.60
2021,04,19,10,23,17.60
2021,04,19,10,24,17.60
2021,04,19,10,25,17.70
2021,04,19,10,26,17.80
2021,04,19,10,27,17.90
2021,04,19,10,28,17.80
2021,04,19,10,29,17.80
2021,04,19,10,30,17.90
2021,04,19,10,31,17.90
2021,04,19,10,32,17.90
2021,04,19,10,33,17.90
2021,04,19,10,34,17.90
2021,04,19,10,35,17.90
2021,04,19,10,36,18.00
2021,04,19,10,37,18.00
2021,04,19,10,38,18.10
2021,04,19,10,39,18.20
2021,04,19,10,40,18.30
2021,04,19,10,41,18.50
2021,04,19,10,42,18.60
2021,04,19,10,43,18.70
2021,04,19,10,44,18.80
2021,04,19,10,45,18.80
2021,04,19,10,46,18.80
2021,04,19,10,47,18.80
2021,04,19,10,48,18.80
2021,04,19,10,49,18.70
2021,04,19,10,50,18.70
2021,04,19,10,51,18.70
2021,04,19,10,52,18.70
2021,04,19,10,53,18.70
2021,04,19,10,54,18.70
2021,04,19,10,55,18.80
2021,04,19,10,56,18.70
2021,04,19,10,57,18.70
2021,04,19,10,58,18.70
2021,04,19,10,59,18.60
2021,04,19,11,00,18.60
2021,04,19,11,01,18.60
2021,04,19,11,02,18.60
2021,04,19,11,03,18.70
2021,04,19,11,04,18.70
2021,04,19,11,05,18.80
2021,04,19,11,06,18.90
2021,04,19,11,07,18.90
2021,04,19,11,08,19.00
2021,04,19,11,09,19.00
2021,04,19,11,10,19.00
2021,04,19,11,11,18.90
2021,04,19,11,12,19.00
2021,04,19,11,13,19.00
2021,04,19,11,14,19.00
2021,04,19,11,15,19.00
2021,04,19,11,16,19.00
2021,04,19,11,17,19.10
2021,04,19,11,18,19.10
2021,04,19,11,19,19.10
2021,04,19,11,20,19.20
2021,04,19,11,21,19.20
2021,04,19,11,22,19.20
2021,04,19,11,23,19.20
2021,04,19,11,24,19.20
2021,04,19,11,25,19.30
2021,04,19,11,26,19.40
2021,04,19,11,27,19.40
2021,04,19,11,28,19.40
2021,04,19,11,29,19.40
2021,04,19,11,30,19.40
2021,04,19,11,31,19.40
2021,04,19,11,32,19.50
2021,04,19,11,33,19.50
2021,04,19,11,34,19.60
2021,04,19,11,35,19.70
2021,04,19,11,36,19.70
2021,04,19,11,37,19.80
2021,04,19,11,38,19.80
2021,04,19,11,39,19.80
2021,04,19,11,40,19.70
2021,04,19,11,41,19.60
2021,04,19,11,42,19.60
2021,04,19,11,43,19.50
2021,04,19,11,44,19.50
2021,04,19,11,45,19.50
2021,04,19,11,46,19.50
2021,04,19,11,47,19.50
2021,04,19,11,48,19.60
2021,04,19,11,49,19.60
2021,04,19,11,50,19.60
2021,04,19,11,51,19.50
2021,04,19,11,52,19.40
2021,04,19,11,53,19.40
2021,04,19,11,54,19.50
2021,04,19,11,55,19.50
2021,04,19,11,56,19.60
2021,04,19,11,57,19.70
2021,04,19,11,58,19.70
2021,04,19,11,59,19.80
2021,04,19,12,00,19.90
2021,04,19,12,01,19.90
2021,04,19,12,02,20.00
2021,04,19,12,03,20.00
2021,04,19,12,04,20.00
2021,04,19,12,05,20.00
2021,04,19,12,06,19.90
2021,04,19,12,07,19.80
2021,04,19,12,08,19.80
2021,04,19,12,09,19.80
2021,04,19,12,10,19.80
2021,04,19,12,11,19.80
2021,04,19,12,12,19.80
2021,04,19,12,13,19.90
2021,04,19,12,14,19.80
2021,04,19,12,15,19.80
2021,04,19,12,16,19.80
2021,04,19,12,17,19.80
2021,04,19,12,18,19.80
2021,04,19,12,19,19.90
2021,04,19,12,20,19.90
2021,04,19,12,21,19.90
2021,04,19,12,22,20.00
2021,04,19,12,23,20.10
2021,04,19,12,24,20.20
2021,04,19,12,25,20.20
2021,04,19,12,26,20.30
2021,04,19,12,27,20.40
2021,04,19,12,28,20.40
2021,04,19,12,29,20.40
2021,04,19,12,30,20.40
2021,04,19,12,31,20.30
2021,04,19,12,32,20.30
2021,04,19,12,33,20.30
2021,04,19,12,34,20.30
2021,04,19,12,35,20.30
2021,04,19,12,36,20.30
2021,04,19,12,37,20.20
2021,04,19,12,38,20.20
2021,04,19,12,39,20.20
2021,04,19,12,40,20.30
2021,04,19,12,41,20.50
2021,04,19,12,42,20.60
2021,04,19,12,43,20.80
2021,04,19,12,44,20.80
2021,04,19,12,45,20.90
2021,04,19,12,46,20.80
2021,04,19,12,47,20.80
2021,04,19,12,48,20.80
2021,04,19,12,49,20.80
2021,04,19,12,50,20.80
2021,04,19,12,51,20.90
2021,04,19,12,52,20.80
2021,04,19,12,53,20.80
2021,04,19,12,54,20.80
2021,04,19,12,55,20.70
2021,04,19,12,56,20.70
2021,04,19,12,57,20.70
2021,04,19,12,58,20.70
2021,04,19,12,59,20.70
2021,04,19,13,00,20.60
2021,04,19,13,01,20.60
2021,04,19,13,02,20.60
2021,04,19,13,03,20.60
2021,04,19,13,04,20.60
2021,04,19,13,05,20.70
2021,04,19,13,06,20.80
2021,04,19,13,07,20.90
2021,04,19,13,08,20.80
2021,04,19,13,09,20.80
2021,04,19,13,10,20.70
2021,04,19,13,11,20.70
2021,04,19,13,12,20.60
2021,04,19,13,13,20.60
2021,04,19,13,14,20.70
2021,04,19,13,15,20.70
2021,04,19,13,16,20.70
2021,04,19,13,17,20.70
2021,04,19,13,18,20.70
2021,04,19,13,19,20.70
2021,04,19,13,20,20.70
2021,04,19,13,21,20.70
2021,04,19,13,22,20.70
2021,04,19,13,23,20.70
2021,04,19,13,24,20.70
2021,04,19,13,25,20.70
2021,04,19,13,26,20.70
2021,04,19,13,27,20.70
2021,04,19,13,28,20.70
2021,04,19,13,29,20.70
2021,04,19,13,30,20.80
2021,04,19,13,31,20.80
2021,04,19,13,32,20.80
2021,04,19,13,33,20.70
2021,04,19,13,34,20.70
2021,04,19,13,35,20.60
2021,04,19,13,36,20.50
2021,04,19,13,37,20.40
2021,04,19,13,38,20.30
2021,04,19,13,39,20.30
2021,04,19,13,40,20.30
2021,04,19,13,41,20.40
2021,04,19,13,42,20.40
2021,04,19,13,43,20.40
2021,04,19,13,44,20.30
2021,04,19,13,45,20.30
2021,04,19,13,46,20.30
2021,04,19,13,47,20.20
2021,04,19,13,48,20.30
2021,04,19,13,49,20.40
2021,04,19,13,50,20.40
2021,04,19,13,51,20.50
2021,04,19,13,52,20.60
2021,04,19,13,53,20.70
2021,04,19,13,54,20.70
2021,04,19,13,55,20.80
2021,04,19,13,56,20.80
2021,04,19,13,57,20.80
2021,04,19,13,58,20.80
2021,04,19,13,59,20.80
2021,04,19,14,00,20.80
2021,04,19,14,01,20.80
2021,04,19,14,02,20.60
2021,04,19,14,03,20.60
2021,04,19,14,04,20.60
2021,04,19,14,05,20.70
2021,04,19,14,06,20.70
2021,04,19,14,07,20.70
2021,04,19,14,08,20.60
2021,04,19,14,09,20.50
2021,04,19,14,10,20.40
2021,04,19,14,11,20.40
2021,04,19,14,12,20.40
2021,04,19,14,13,20.50
2021,04,19,14,14,20.50
2021,04,19,14,15,20.60
2021,04,19,14,16,20.60
2021,04,19,14,17,20.70
2021,04,19,14,18,20.80
2021,04,19,14,19,20.80
2021,04,19,14,20,20.80
2021,04,19,14,21,20.80
2021,04,19,14,22,20.80
2021,04,19,14,23,20.70
2021,04,19,14,24,20.70
2021,04,19,14,25,20.70
2021,04,19,14,26,20.80
2021,04,19,14,27,20.80
2021,04,19,14,28,20.80
2021,04,19,14,29,20.80
2021,04,19,14,30,20.80
2021,04,19,14,31,20.90
2021,04,19,14,32,20.80
2021,04,19,14,33,20.80
2021,04,19,14,34,20.70
2021,04,19,14,35,20.70
2021,04,19,14,36,20.70
2021,04,19,14,37,20.70
2021,04,19,14,38,20.60
2021,04,19,14,39,20.60
2021,04,19,14,40,20.60
2021,04,19,14,41,20.60
2021,04,19,14,42,20.70
2021,04,19,14,43,20.70
2021,04,19,14,44,20.80
2021,04,19,14,45,20.70
2021,04,19,14,46,20.70
2021,04,19,14,47,20.70
2021,04,19,14,48,20.70
2021,04,19,14,49,20.70
2021,04,19,14,50,20.70
2021,04,19,14,51,20.70
2021,04,19,14,52,20.80
2021,04,19,14,53,20.80
2021,04,19,14,54,20.80
2021,04,19,14,55,20.80
2021,04,19,14,56,20.80
2021,04,19,14,57,20.80
2021,04,19,14,58,20.80
2021,04,19,14,59,20.70
2021,04,19,15,00,20.70
2021,04,19,15,01,20.70
2021,04,19,15,02,20.60
2021,04,19,15,03,20.50
2021,04,19,15,04,20.50
2021,04,19,15,05,20.40
2021,04,19,15,06,20.50
2021,04,19,15,07,20.60
2021,04,19,15,08,20.60
2021,04,19,15,09,20.60
2021,04,19,15,10,20.60
2021,04,19,15,11,20.50
2021,04,19,15,12,20.40
2021,04,19,15,13,20.40
2021,04,19,15,14,20.40
2021,04,19,15,15,20.30
2021,04,19,15,16,20.30
2021,04,19,15,17,20.30
2021,04,19,15,18,20.30
2021,04,19,15,19,20.30
2021,04,19,15,20,20.30
2021,04,19,15,21,20.30
2021,04,19,15,22,20.30
2021,04,19,15,23,20.30
2021,04,19,15,24,20.30
2021,04,19,15,25,20.20
2021,04,19,15,26,20.20
2021,04,19,15,27,20.10
2021,04,19,15,28,20.20
2021,04,19,15,29,20.20
2021,04,19,15,30,20.20
2021,04,19,15,31,20.20
2021,04,19,15,32,20.20
2021,04,19,15,33,20.20
2021,04,19,15,34,20.10
2021,04,19,15,35,20.10
2021,04,19,15,36,20.10
2021,04,19,15,37,20.00
2021,04,19,15,38,20.00
2021,04,19,15,39,20.00
2021,04,19,15,40,19.90
2021,04,19,15,41,19.90
2021,04,19,15,42,19.90
2021,04,19,15,43,19.80
2021,04,19,15,44,19.80
2021,04,19,15,45,19.80
2021,04,19,15,46,19.80
2021,04,19,15,47,19.80
2021,04,19,15,48,19.90
2021,04,19,15,49,19.90
2021,04,19,15,50,20.00
2021,04,19,15,51,20.00
2021,04,19,15,52,20.00
2021,04,19,15,53,20.00
2021,04,19,15,54,20.00
2021,04,19,15,55,20.00
2021,04,19,15,56,20.00
2021,04,19,15,57,20.00
2021,04,19,15,58,20.00
2021,04,19,15,59,20.00
2021,04,19,16,00,20.00
2021,04,19,16,01,20.00
2021,04,19,16,02,20.00
2021,04,19,16,03,20.10
2021,04,19,16,04,20.10
2021,04,19,16,05,20.10
2021,04,19,16,06,20.10
2021,04,19,16,07,20.10
2021,04,19,16,08,20.10
2021,04,19,16,09,20.10
2021,04,19,16,10,20.10
2021,04,19,16,11,20.20
2021,04,19,16,12,20.20
2021,04,19,16,13,20.10
2021,04,19,16,14,20.10
2021,04,19,16,15,20.10
2021,04,19,16,16,20.00
2021,04,19,16,17,20.00
2021,04,19,16,18,20.00
2021,04,19,16,19,19.90
2021,04,19,16,20,19.90
2021,04,19,16,21,19.90
2021,04,19,16,22,19.80
2021,04,19,16,23,19.80
2021,04,19,16,24,19.80
2021,04,19,16,25,19.80
2021,04,19,16,26,19.80
2021,04,19,16,27,19.80
2021,04,19,16,28,19.80
2021,04,19,16,29,19.80
2021,04,19,16,30,19.80
2021,04,19,16,31,19.80
2021,04,19,16,32,19.80
2021,04,19,16,33,19.80
2021,04,19,16,34,19.80
2021,04,19,16,35,19.80
2021,04,19,16,36,19.70
2021,04,19,16,37,19.70
2021,04,19,16,38,19.70
2021,04,19,16,39,19.70
2021,04,19,16,40,19.70
2021,04,19,16,41,19.70
2021,04,19,16,42,19.70
2021,04,19,16,43,19.70
2021,04,19,16,44,19.70
2021,04,19,16,45,19.70
2021,04,19,16,46,19.70
2021,04,19,16,47,19.80
2021,04,19,16,48,19.80
2021,04,19,16,49,19.80
2021,04,19,16,50,19.80
2021,04,19,16,51,19.80
2021,04,19,16,52,19.80
2021,04,19,16,53,19.80
2021,04,19,16,54,19.80
2021,04,19,16,55,19.80
2021,04,19,16,56,19.80
2021,04,19,16,57,19.80
2021,04,19,16,58,19.90
2021,04,19,16,59,19.90
2021,04,19,17,00,19.90
2021,04,19,17,01,19.90
2021,04,19,17,02,19.90
2021,04,19,17,03,19.90
2021,04,19,17,04,19.90
2021,04,19,17,05,19.90
2021,04,19,17,06,19.90
2021,04,19,17,07,19.90
2021,04,19,17,08,19.90
2021,04,19,17,09,19.90
2021,04,19,17,10,19.90
2021,04,19,17,11,19.90
2021,04,19,17,12,19.90
2021,04,19,17,13,19.90
2021,04,19,17,14,19.90
2021,04,19,17,15,19.90
2021,04,19,17,16,19.90
2021,04,19,17,17,19.90
2021,04,19,17,18,19.90
2021,04,19,17,19,20.00